Dewpoint
64 70 74 74 74 74 73 74 74 74 74 74 74 74 74 74 73 73 74 74 74 73 73 73 73 73 73 73 74 73 73 73 73 73 73 73 71 71 71 71 73 66 71
63 69 75 74 73 73 74 74 74 74 74 74 74 74 73 73 74 74 73 73 73 74 73 73 72 72 73 73 73 73 73 75 73 72 72 72 71 71 72 72 73 69 71
62 68 70 74 72 74 74 74 74 74 74 74 74 74 74 74 73 74 74 73 73 74 73 72 73 73 73 73 73 73 72 72 72 72 73 66 68 71 72 72 71 71 71
60 62 66 75 72 74 73 73 74 74 75 74 73 74 74 74 74 73 73 74 74 73 74 73 73 73 73 74 73 73 73 72 72 72 65 66 67 73 73 72 72 71 71
59 62 69 74 73 73 74 74 74 74 74 74 74 74 73 74 73 74 74 73 74 74 74 74 74 74 74 74 74 73 73 71 71 69 62 68 66 71 72 72 72 71 71
59 62 71 73 73 73 73 73 74 74 74 74 74 75 75 74 74 74 74 74 73 73 74 74 74 74 73 73 73 73 71 71 73 64 63 66 66 72 72 72 73 73 72
61 65 70 74 74 73 73 73 73 74 74 74 74 74 75 74 74 74 74 74 73 74 74 74 74 74 73 73 73 72 71 70 65 64 65 66 69 73 73 73 72 73 72
59 63 68 75 74 74 74 74 73 74 74 74 74 74 74 75 74 74 74 74 74 74 74 74 73 72 72 72 73 73 72 70 65 63 65 64 73 73 73 73 72 72 72
58 61 64 65 70 74 74 74 73 73 73 74 73 73 74 74 74 74 73 74 74 73 74 73 73 73 72 72 72 72 72 71 63 62 60 66 75 73 73 72 73 73 73
61 61 61 63 64 66 68 73 74 73 73 73 74 74 74 73 73 74 74 73 72 73 73 73 72 72 71 71 70 70 72 73 67 61 61 69 75 73 74 73 73 73 73
61 61 60 61 67 71 72 67 71 73 73 73 73 73 73 69 71 71 73 74 74 73 73 73 72 72 72 71 71 71 71 69 58 60 63 74 74 72 71 72 73 73 72
59 61 60 61 64 66 67 71 73 66 66 72 73 70 73 68 71 68 72 73 73 72 73 73 73 73 72 67 68 70 64 63 61 60 67 74 73 73 72 72 72 72 73
56 59 62 66 67 67 70 69 71 73 71 66 70 71 68 68 65 65 69 67 70 73 69 71 71 69 68 63 61 62 62 61 60 59 71 75 73 73 73 73 73 73 73
55 58 61 64 66 69 70 70 72 68 72 70 66 70 71 67 66 71 69 69 67 70 69 71 70 66 66 66 65 62 60 59 58 58 71 75 75 74 74 74 74 74 74
55 57 59 64 69 70 71 73 73 70 68 72 73 68 74 75 69 69 70 67 69 72 65 65 65 67 70 67 65 66 64 62 60 59 63 76 75 75 74 74 74 75 75
56 58 59 64 69 69 70 72 70 73 70 70 70 74 71 72 74 75 71 76 71 72 71 71 73 69 71 71 72 67 67 66 65 65 62 71 76 75 75 74 74 75 76
55 57 60 63 66 69 70 70 68 73 74 70 70 72 73 74 73 75 74 72 74 72 72 73 72 72 71 68 70 69 68 68 67 67 70 69 74 77 77 76 76 76 77
61 61 61 60 62 66 67 69 66 73 72 72 70 72 70 71 72 72 74 71 71 71 73 70 69 76 76 69 70 74 71 70 71 70 70 69 69 69 76 77 77 77 77
64 66 65 65 62 65 69 68 67 71 67 68 67 72 71 71 70 71 69 71 71 69 74 69 71 73 68 76 72 71 70 73 71 69 69 69 70 66 70 75 77 76 76
63 66 67 66 68 69 68 70 66 72 69 72 71 73 71 71 71 72 68 70 70 74 69 70 73 71 73 68 66 62 67 70 71 71 70 70 72 71 71 73 73 71 76
64 65 67 69 71 69 68 67 66 64 68 67 68 73 72 72 73 74 71 75 72 75 71 72 71 74 68 71 71 68 70 70 63 64 67 70 70 71 71 73 71 72 73
65 65 68 68 71 71 69 72 73 66 64 65 73 74 74 73 73 74 76 73 74 72 74 74 75 75 71 71 71 73 66 70 70 69 70 68 67 70 71 70 70 71 71
64 65 68 70 70 71 75 69 70 69 70 68 68 73 73 74 74 74 75 76 75 74 74 73 72 73 71 74 71 70 63 70 70 68 70 66 68 70 71 69 70 74 74
63 65 67 71 71 71 72 72 74 68 72 71 70 72 70 73 71 70 71 74 76 79 75 73 73 75 75 70 72 72 72 72 70 68 71 69 68 68 70 68 71 71 72
63 63 66 72 72 73 73 74 70 72 74 69 70 73 76 74 73 73 74 74 74 74 77 74 74 75 70 69 67 70 73 74 73 70 68 65 67 72 73 73 70 72 71
62 63 66 71 73 73 72 73 72 72 71 70 70 71 76 78 73 73 72 73 73 73 73 75 74 73 73 73 74 75 74 72 71 69 70 66 59 61 68 66 67 74 73
Lifted_Index
-2 -2 -3 -3 -3 -3 -3 -4 -4 -4 -4 -4 -4 -4 -4 -4 -4 -4 -3 -3 -2 -2 -1 -1 -1 -1 -1 -2 -2 -2 -2 -2 -2 -2 -2 -2 -1 -1 -1 -2 -2 -2 -2
-2 -2 -3 -3 -3 -3 -4 -4 -4 -4 -4 -4 -4 -4 -4 -4 -4 -4 -3 -3 -3 -2 -2 -1 -1 -1 -2 -2 -2 -2 -2 -2 -2 -2 -2 -1 -1 -2 -2 -2 -2 -2 -2
-1 -2 -3 -3 -3 -3 -4 -4 -4 -5 -5 -5 -5 -4 -4 -4 -4 -4 -4 -3 -3 -3 -3 -2 -2 -2 -2 -2 -2 -2 -2 -2 -2 -2 -2 -1 -2 -2 -2 -2 -2 -2 -2
-1 -1 -2 -3 -3 -4 -4 -4 -4 -5 -5 -5 -5 -5 -5 -4 -4 -4 -4 -4 -3 -4 -4 -3 -3 -3 -3 -3 -3 -2 -2 -2 -2 -2 -1 -1 -2 -2 -3 -3 -2 -2 -2
-1 -1 -2 -3 -3 -4 -4 -4 -5 -5 -5 -5 -5 -5 -5 -5 -4 -4 -4 -4 -4 -4 -4 -4 -4 -3 -3 -3 -3 -3 -2 -2 -2 -1 -0 -0 -1 -2 -3 -3 -3 -2 -2
-1 -1 -2 -3 -4 -4 -4 -4 -5 -5 -5 -5 -5 -5 -5 -5 -5 -4 -4 -4 -4 -4 -4 -4 -4 -3 -3 -3 -3 -2 -2 -2 -2 -1 -0 -0 -1 -2 -3 -3 -3 -3 -3
-1 -2 -3 -4 -4 -4 -4 -4 -5 -5 -5 -5 -5 -5 -5 -5 -5 -5 -4 -4 -4 -4 -4 -4 -4 -3 -3 -3 -3 -2 -2 -2 -1 -1 -0 -1 -2 -3 -3 -3 -3 -3 -3
-1 -2 -3 -3 -4 -4 -4 -4 -5 -5 -5 -5 -5 -5 -5 -5 -5 -5 -4 -4 -4 -4 -4 -4 -4 -3 -3 -3 -3 -3 -3 -2 -1 -0 -1 -1 -3 -3 -3 -3 -3 -3 -3
-1 -2 -2 -2 -3 -3 -4 -4 -4 -5 -5 -5 -5 -5 -5 -5 -5 -5 -4 -4 -4 -4 -4 -4 -4 -3 -3 -3 -3 -3 -3 -2 -1 -0 -0 -2 -3 -4 -3 -3 -3 -4 -4
-1 -1 -1 -1 -2 -2 -3 -3 -4 -4 -4 -5 -5 -5 -5 -5 -5 -4 -4 -4 -4 -4 -4 -4 -4 -3 -3 -3 -3 -3 -3 -2 -1 -0 -1 -2 -3 -4 -3 -3 -3 -4 -4
-2 -2 -1 -1 -2 -2 -2 -2 -3 -3 -4 -4 -4 -4 -4 -4 -4 -4 -4 -4 -4 -4 -4 -4 -4 -3 -3 -2 -2 -2 -2 -2 -1 -0 -1 -2 -3 -3 -3 -3 -3 -4 -4
-2 -2 -2 -2 -2 -2 -2 -2 -2 -2 -3 -3 -3 -4 -4 -3 -3 -3 -3 -4 -4 -4 -4 -4 -3 -3 -2 -2 -1 -1 -1 -1 -0 -1 -2 -2 -3 -3 -3 -3 -3 -4 -4
-1 -1 -2 -2 -2 -2 -2 -2 -3 -2 -2 -2 -3 -3 -3 -3 -2 -2 -3 -3 -3 -3 -3 -3 -3 -2 -2 -1 -1 -0 -0 -0 -0 -1 -2 -3 -3 -3 -4 -4 -4 -4 -4
-0 -1 -2 -2 -3 -3 -3 -3 -3 -3 -3 -2 -2 -3 -3 -3 -2 -2 -3 -3 -3 -3 -3 -2 -2 -2 -1 -1 -1 -1 -0 0 0 -1 -2 -3 -3 -4 -4 -4 -4 -4 -4
-0 -1 -1 -2 -3 -3 -3 -3 -3 -3 -2 -3 -3 -3 -3 -3 -3 -3 -3 -3 -3 -3 -2 -2 -2 -2 -2 -2 -2 -2 -1 -0 -0 -1 -2 -3 -3 -4 -4 -4 -4 -5 -5
-0 -1 -1 -2 -3 -3 -4 -4 -3 -2 -2 -3 -3 -3 -3 -3 -4 -4 -4 -4 -4 -3 -3 -3 -3 -3 -3 -3 -3 -2 -2 -2 -2 -2 -2 -3 -4 -4 -4 -4 -4 -5 -5
-1 -1 -1 -2 -3 -3 -4 -3 -3 -2 -3 -3 -3 -3 -3 -4 -4 -4 -4 -4 -4 -4 -4 -4 -4 -3 -3 -3 -3 -3 -3 -3 -3 -3 -3 -4 -4 -4 -5 -5 -5 -5 -6
-2 -2 -2 -2 -2 -3 -3 -3 -3 -3 -3 -3 -3 -3 -3 -4 -4 -4 -4 -4 -4 -4 -4 -4 -4 -4 -4 -3 -3 -4 -4 -4 -4 -4 -4 -4 -4 -4 -5 -5 -5 -5 -6
-3 -3 -3 -3 -3 -3 -4 -3 -3 -3 -3 -3 -3 -4 -4 -4 -4 -4 -4 -4 -4 -3 -4 -4 -4 -4 -4 -4 -4 -3 -4 -4 -4 -4 -4 -4 -4 -4 -5 -5 -5 -5 -5
-3 -3 -3 -4 -4 -4 -4 -4 -3 -3 -3 -3 -4 -4 -4 -4 -4 -4 -4 -4 -4 -4 -4 -4 -4 -4 -4 -4 -4 -3 -3 -4 -4 -4 -4 -4 -4 -4 -5 -5 -5 -5 -5
-4 -3 -4 -4 -4 -5 -5 -4 -3 -3 -3 -3 -4 -4 -4 -5 -5 -5 -5 -5 -5 -4 -4 -5 -5 -5 -5 -5 -4 -4 -4 -4 -3 -3 -4 -4 -4 -5 -5 -5 -6 -6 -5
-4 -4 -4 -4 -5 -5 -5 -5 -4 -4 -4 -4 -4 -5 -5 -5 -6 -6 -6 -6 -5 -5 -5 -5 -5 -5 -5 -5 -5 -4 -4 -4 -3 -3 -4 -4 -4 -4 -5 -5 -6 -6 -6
-4 -4 -4 -4 -5 -5 -5 -5 -5 -5 -4 -4 -5 -5 -5 -6 -6 -6 -6 -6 -6 -6 -5 -5 -5 -5 -5 -5 -5 -4 -4 -4 -4 -4 -4 -3 -3 -4 -4 -5 -5 -6 -6
-3 -3 -4 -5 -5 -5 -6 -6 -6 -5 -5 -5 -5 -5 -5 -6 -5 -5 -5 -6 -6 -6 -6 -6 -5 -5 -5 -5 -5 -4 -4 -4 -4 -4 -4 -3 -3 -4 -4 -4 -5 -5 -6
-3 -3 -4 -5 -6 -6 -6 -6 -6 -6 -6 -6 -6 -6 -6 -6 -5 -5 -5 -5 -6 -6 -6 -5 -5 -5 -5 -5 -5 -5 -5 -5 -4 -4 -4 -3 -3 -3 -3 -3 -4 -5 -5
-3 -3 -4 -5 -6 -6 -6 -6 -6 -6 -6 -6 -6 -6 -6 -6 -5 -5 -5 -5 -5 -5 -5 -5 -5 -5 -5 -5 -5 -5 -6 -5 -4 -3 -3 -3 -2 -2 -3 -3 -3 -4 -5